GEFSSE_con_cape1000_144.txt.gz
Probability
3 35 77 71 74 77 81 77 77 81 81 74 77 74 71 68 71 71 77 87 81 81 71 68 65 68 68 68 68 68 68 68 65 74 74 74 58 52 52 55 58 65 61
13 32 71 71 71 71 71 71 68 65 68 68 68 65 58 58 58 48 52 58 55 65 68 68 71 71 65 71 68 65 61 58 61 74 71 61 55 58 55 48 58 55 55
10 35 61 68 68 61 61 58 48 48 52 45 45 45 45 42 45 48 45 45 55 58 61 58 61 55 58 61 61 65 58 61 68 68 65 35 48 65 61 55 55 58 61
10 16 23 65 61 58 52 55 52 45 42 39 35 35 29 29 32 39 35 52 42 45 52 48 45 52 55 52 55 68 65 68 65 71 29 32 35 65 71 48 55 52 48
6 13 39 55 55 55 52 45 42 35 32 32 29 29 26 26 29 29 29 32 29 32 39 42 42 42 42 42 39 52 65 68 68 45 10 3 16 65 61 55 52 55 58
6 10 39 55 48 45 35 32 32 32 26 23 16 16 16 16 16 16 13 13 13 16 19 26 26 26 29 29 35 48 52 58 35 13 3 3 13 55 55 61 58 52 48
3 10 23 45 35 32 26 23 19 16 16 13 13 13 10 10 13 13 16 13 13 10 13 16 19 19 19 29 32 32 39 48 23 6 0 0 13 45 52 55 52 42 48
0 13 23 39 32 26 19 19 19 19 13 13 10 10 10 13 10 13 10 0 3 6 6 3 13 13 13 23 32 39 42 52 13 3 0 3 39 52 39 45 55 48 48
6 10 16 23 23 19 19 19 19 16 16 13 10 10 10 10 6 10 6 10 6 6 6 3 13 13 23 26 35 35 45 58 16 6 3 3 55 45 45 42 55 48 48
3 10 13 13 10 13 13 19 16 13 10 6 6 6 6 6 3 3 3 3 0 3 6 13 10 23 23 26 35 48 61 45 13 10 3 16 55 58 42 42 55 55 45
0 3 10 6 6 6 10 13 13 10 13 10 6 6 3 0 0 0 0 3 3 3 3 10 13 23 23 32 32 39 39 6 0 0 3 23 58 58 45 42 45 42 42
0 0 6 6 6 6 3 3 0 0 3 3 3 3 0 0 0 0 0 6 3 3 3 6 23 16 13 0 0 16 6 0 0 6 10 39 55 52 32 32 26 26 39
0 0 0 3 3 0 0 0 0 0 0 0 0 0 0 0 0 0 0 0 0 0 0 0 0 0 0 0 0 0 0 0 0 6 13 52 55 35 26 29 29 39 39
0 0 0 0 0 0 0 0 0 0 0 0 0 0 0 0 0 0 0 0 0 0 0 0 0 0 0 0 0 0 0 0 0 0 6 39 48 42 32 35 35 48 48
0 0 0 0 0 0 0 0 0 0 0 0 0 0 0 0 0 0 0 0 0 0 0 0 0 0 0 0 0 0 0 0 0 0 3 16 48 42 26 29 39 42 48
0 0 0 0 0 0 0 0 0 0 0 0 0 0 0 0 0 0 0 0 0 0 0 0 0 0 0 0 0 0 0 0 0 0 0 3 32 39 45 39 42 45 42
0 0 0 0 0 0 0 0 0 0 0 0 0 0 0 0 0 0 0 0 0 0 0 0 0 0 0 0 0 0 0 0 0 0 0 0 3 13 39 48 39 48 42
0 0 0 0 0 0 0 0 0 0 0 0 0 0 0 0 0 0 0 0 0 0 0 0 0 0 0 0 0 0 0 0 0 0 0 0 0 0 10 45 55 58 45
0 0 0 0 0 0 0 0 0 0 0 0 0 0 0 0 0 0 0 0 0 0 0 0 0 0 0 0 0 0 0 0 0 0 0 0 0 0 0 6 39 55 55
0 0 0 0 0 0 0 0 0 0 0 0 0 0 0 0 0 0 0 0 0 0 0 0 0 0 0 0 0 0 0 0 0 0 0 0 0 0 0 0 0 13 32
0 0 0 0 0 0 0 0 0 0 0 0 0 0 0 0 0 0 0 0 0 0 0 0 0 0 0 0 0 0 0 0 0 0 0 0 0 0 0 0 0 6 6
0 0 0 0 0 0 0 0 0 0 0 0 0 0 0 0 0 0 0 0 0 0 0 0 0 0 0 0 0 0 0 0 0 0 0 0 0 0 0 0 0 0 0
0 0 0 0 0 0 0 0 0 0 0 0 0 0 0 0 0 0 0 0 0 0 0 0 0 0 0 0 0 0 0 0 0 0 0 0 0 0 0 0 0 0 0
0 0 0 0 0 0 0 0 0 0 0 0 0 0 0 0 0 0 0 0 0 0 0 0 0 0 0 0 0 0 0 0 0 0 0 0 0 0 0 0 0 0 0
0 0 0 0 0 0 0 0 0 0 0 0 0 0 0 0 0 0 0 0 0 0 0 0 0 0 0 0 0 0 0 0 0 0 0 0 0 0 0 0 0 0 0
0 0 0 0 0 0 0 0 0 0 0 0 0 0 0 0 0 0 0 0 0 0 0 0 0 0 0 0 0 0 0 0 0 0 0 0 0 0 0 0 0 0 0

GEFSSE_con_cape1000_150.txt.gz
Probability
0 3 55 65 71 77 77 71 77 71 71 71 68 71 65 68 68 81 77 77 81 74 71 74 68 71 71 74 71 71 77 74 74 68 68 61 61 58 48 58 68 58 61
0 19 61 68 71 68 65 68 65 65 65 61 52 48 48 55 55 65 65 58 58 61 65 65 68 65 61 74 68 74 71 71 71 65 68 65 55 65 58 42 52 45 65
6 29 52 61 65 58 58 58 55 42 55 52 39 35 42 45 42 42 45 48 48 58 55 52 48 55 55 65 65 65 65 61 71 74 61 26 35 68 65 52 48 45 55
13 19 32 58 61 55 52 45 42 42 42 42 32 29 32 29 39 42 39 39 42 39 45 48 52 45 48 52 55 61 65 68 65 48 13 23 26 55 61 58 48 52 61
6 10 35 55 52 52 52 45 42 35 35 29 26 32 29 23 23 26 29 29 29 35 39 39 42 48 48 48 48 52 52 52 55 16 3 3 10 42 68 61 58 58 58
6 10 32 52 45 39 42 39 29 29 29 23 16 16 10 16 19 23 19 23 19 26 26 29 29 29 32 32 48 55 45 45 16 3 3 3 13 35 58 58 61 58 48
6 10 13 39 32 29 26 26 26 23 19 19 16 10 10 10 10 6 3 10 13 13 16 16 19 23 29 35 35 39 48 42 6 3 3 0 10 42 55 61 55 58 52
6 6 16 29 26 26 23 23 19 16 13 10 13 10 10 10 6 6 10 10 6 3 3 3 19 19 19 23 32 29 29 29 16 3 0 0 13 52 48 48 52 58 42
6 10 10 10 10 23 23 16 16 13 10 13 10 10 3 3 3 3 0 3 0 0 10 10 13 19 19 23 29 35 35 42 10 3 0 0 19 48 32 42 55 61 55
6 10 6 6 10 13 13 13 13 13 13 10 10 6 6 6 3 3 3 3 0 0 0 6 10 16 26 29 29 26 35 23 0 0 0 0 35 35 42 52 58 48 52
3 3 6 6 10 10 10 13 10 10 10 6 6 6 3 0 0 0 0 0 0 0 3 6 6 10 16 16 19 19 13 0 0 0 0 13 39 23 39 48 48 48 42
0 3 6 6 10 10 10 3 3 3 3 3 3 0 0 0 0 0 0 0 0 0 0 3 0 0 0 0 0 3 0 0 0 0 0 23 26 26 32 45 39 45 39
0 0 3 6 6 0 0 0 0 0 0 0 0 0 0 0 0 0 0 0 0 0 0 0 0 0 0 0 0 0 0 0 0 0 0 19 19 19 19 32 35 42 42
0 0 6 6 3 0 0 0 0 0 0 0 0 0 0 0 0 0 0 0 0 0 0 0 0 0 0 0 0 0 0 0 0 0 3 16 32 26 13 26 39 39 39
0 0 3 3 0 0 0 0 0 0 0 0 0 0 0 0 0 0 0 0 0 0 0 0 0 0 0 0 0 0 0 0 0 0 0 13 26 32 19 19 26 26 42
0 0 0 0 0 0 0 0 0 0 0 0 0 0 0 0 0 0 0 0 0 0 0 0 0 0 0 0 0 0 0 0 0 0 0 0 10 16 32 26 19 23 39
0 0 0 0 0 0 0 0 0 0 0 0 0 0 0 0 0 0 0 0 0 0 0 0 0 0 0 0 0 0 0 0 0 0 0 0 0 6 19 26 32 16 29
0 0 0 0 0 0 0 0 0 0 0 0 0 0 0 0 0 0 0 0 0 0 0 0 0 0 0 0 0 0 0 0 0 0 0 0 0 0 0 13 29 29 29
0 0 0 0 0 0 0 0 0 0 0 0 0 0 0 0 0 0 0 0 0 0 0 0 0 0 0 0 0 0 0 0 0 0 0 0 0 0 0 0 16 23 23
0 0 0 0 0 0 0 0 0 0 0 0 0 0 0 0 0 0 0 0 0 0 0 0 0 0 0 0 0 0 0 0 0 0 0 0 0 0 0 0 0 0 3
0 0 0 0 0 0 0 0 0 0 0 0 0 0 0 0 0 0 0 0 0 0 0 0 0 0 0 0 0 0 0 0 0 0 0 0 0 0 0 0 0 0 0
0 0 0 0 0 0 0 0 0 0 0 0 0 0 0 0 0 0 0 0 0 0 0 0 0 0 0 0 0 0 0 0 0 0 0 0 0 0 0 0 0 0 0
0 0 0 0 0 0 0 0 0 0 0 0 0 0 0 0 0 0 0 0 0 0 0 0 0 0 0 0 0 0 0 0 0 0 0 0 0 0 0 0 0 0 0
0 0 0 0 0 0 0 0 0 0 0 0 0 0 0 0 0 0 0 0 0 0 0 0 0 0 0 0 0 0 0 0 0 0 0 0 0 0 0 0 0 0 0
0 0 0 0 0 0 0 0 0 0 0 0 0 0 0 0 0 0 0 0 0 0 0 0 0 0 0 0 0 0 0 0 0 0 0 0 0 0 0 0 0 0 0
0 0 0 0 0 0 0 0 0 0 0 0 0 0 0 0 0 0 0 0 0 0 0 0 0 0 0 0 0 0 0 0 0 0 0 0 0 0 0 0 0 0 0

GEFSSE_con_cape1000_156.txt.gz
Probability
6 19 45 58 61 71 71 68 61 65 65 65 65 55 55 61 65 61 55 55 65 71 65 65 65 58 68 71 74 77 77 81 71 71 65 68 68 65 65 58 58 58 74
10 16 52 61 61 61 61 58 61 65 58 55 42 42 39 42 42 48 58 48 48 52 55 52 61 65 65 65 65 77 71 74 77 74 68 58 61 65 58 58 55 68 74
16 23 42 55 58 55 45 45 45 45 48 48 42 35 35 29 29 29 35 39 45 52 55 52 48 55 55 58 52 61 61 58 65 61 55 58 61 58 65 52 39 52 65
10 23 23 48 45 39 39 42 39 39 39 32 32 29 26 26 26 26 23 35 32 32 42 45 48 45 42 45 45 52 42 45 55 42 35 35 42 42 55 52 45 45 61
3 16 26 35 42 35 39 42 39 39 32 32 23 23 16 19 16 16 16 23 26 29 29 35 35 39 39 39 48 48 45 35 29 39 32 48 65 61 48 45 52 52 52
6 16 19 35 35 32 35 35 29 32 26 19 19 16 16 16 16 19 19 19 26 23 23 23 26 29 39 42 32 39 32 35 26 29 39 45 55 58 65 52 61 48 39
6 6 13 32 35 29 26 29 29 26 26 16 10 10 10 10 6 10 3 10 10 13 13 16 23 23 23 29 32 26 32 29 16 29 35 39 52 55 61 52 61 55 42
3 6 13 19 26 26 26 23 23 19 19 10 10 10 6 6 10 3 3 3 10 13 13 13 19 23 19 23 29 23 23 29 10 6 23 35 48 48 58 52 48 45 48
3 6 6 10 13 23 13 13 13 10 10 10 6 3 3 3 0 0 0 3 3 10 13 13 16 19 19 26 23 13 23 23 19 16 3 19 29 39 42 48 45 58 45
3 6 6 6 6 13 13 13 10 6 10 6 6 3 3 0 0 0 0 3 3 3 6 6 13 13 23 16 19 16 6 19 23 10 16 16 32 35 39 48 48 52 35
3 3 3 3 6 6 3 3 3 6 6 6 3 3 3 0 0 0 0 0 0 6 6 3 6 6 13 16 16 13 13 10 19 19 16 23 23 13 32 32 42 45 42
3 3 0 6 6 3 3 3 6 6 6 0 3 3 3 0 0 0 0 0 0 0 0 3 3 3 3 6 10 10 10 0 6 6 10 16 13 13 26 35 39 32 35
0 0 0 3 3 3 3 3 6 6 3 3 3 3 0 0 0 0 3 0 0 0 0 0 0 0 3 10 13 6 6 0 3 3 6 19 19 13 26 29 23 26 39
0 0 0 0 3 0 0 3 3 3 3 3 3 0 0 0 0 0 3 3 0 0 0 0 0 0 3 3 0 6 6 3 3 6 16 13 16 19 19 19 19 19 23
0 0 0 0 0 0 3 6 3 3 3 0 0 0 0 0 0 0 0 0 0 0 0 0 0 3 6 6 3 3 6 6 3 10 13 6 16 16 19 23 13 19 23
0 0 0 0 0 0 3 0 0 0 0 0 0 0 0 0 0 0 0 0 0 0 0 0 0 6 6 10 3 10 3 6 3 6 6 10 6 10 16 16 10 10 19
0 0 0 0 0 0 0 0 0 0 0 0 0 0 0 0 0 0 0 0 0 0 0 0 0 0 3 3 6 6 10 3 10 6 3 3 6 10 13 16 10 10 13
0 0 0 0 0 0 0 0 0 0 0 0 0 0 0 0 0 0 0 3 0 0 0 0 3 3 3 6 10 3 6 10 3 3 3 6 10 3 10 10 16 13 10
3 3 3 3 3 3 3 3 0 0 0 0 0 0 0 0 0 0 3 0 3 0 0 0 3 3 3 6 6 10 6 10 6 3 3 3 0 0 3 6 10 13 16
3 3 0 6 6 6 3 3 0 3 0 0 0 0 0 0 0 3 6 3 3 3 3 3 3 6 6 6 0 6 6 6 6 10 0 3 3 0 0 0 3 3 6
3 6 6 0 3 3 0 0 0 0 0 0 0 0 0 0 3 3 0 3 3 3 3 3 6 6 3 3 10 13 10 3 0 6 6 3 0 0 0 0 6 6 3
3 3 3 0 3 3 0 0 0 0 0 0 0 0 0 0 3 0 0 0 0 3 0 3 10 6 3 3 3 13 6 3 3 0 6 3 0 0 0 0 3 3 10
3 3 0 0 3 3 3 0 0 0 0 0 0 0 0 0 3 3 0 0 0 3 0 0 0 6 6 3 3 0 0 0 3 3 0 0 0 3 3 0 0 3 3
3 3 3 3 3 3 3 0 0 0 0 0 3 3 0 0 0 3 3 3 3 0 0 0 0 3 10 3 6 3 3 3 0 0 0 0 0 3 0 0 0 0 3
3 3 3 3 3 3 3 0 3 0 0 0 0 0 0 0 0 0 3 3 3 0 0 0 3 3 3 3 3 6 3 3 0 0 0 0 3 3 3 0 0 3 0
3 3 3 3 3 3 3 3 3 0 0 0 0 0 0 0 0 0 0 0 0 0 0 0 0 3 3 3 6 3 6 0 3 3 3 3 0 0 0 0 6 6 3

GEFSSE_con_cape1000_162.txt.gz
Probability
32 26 71 68 65 68 61 58 58 58 58 58 65 55 52 48 58 52 52 52 58 55 58 58 61 55 61 68 71 68 74 74 68 65 65 68 61 61 52 65 71 68 81
29 26 68 68 58 61 55 55 52 55 55 52 45 48 39 42 39 48 45 45 45 48 55 55 52 48 48 58 61 55 55 61 61 58 71 61 74 74 65 65 74 61 65
23 29 55 65 61 58 55 52 52 45 48 42 35 35 32 35 29 29 29 35 39 39 45 45 48 48 42 42 35 39 52 52 55 68 71 61 74 84 68 65 65 61 61
10 19 32 58 55 48 52 52 48 45 42 39 29 26 26 29 23 19 26 29 29 29 32 45 39 39 39 39 42 35 42 58 52 65 45 48 55 71 68 58 55 55 61
13 13 29 52 45 35 35 45 45 32 35 26 26 19 23 16 16 19 19 23 26 29 32 32 32 39 42 39 39 32 26 39 55 61 32 45 42 61 55 55 55 55 65
13 16 26 42 35 32 35 35 35 32 32 26 23 16 13 10 10 16 13 13 16 19 26 26 23 23 39 39 29 26 26 32 39 35 39 39 45 52 45 55 45 58 45
13 13 10 29 26 32 35 39 32 23 23 23 13 13 6 10 6 10 6 10 13 19 23 23 23 23 26 29 23 23 23 35 26 29 39 39 39 45 52 58 42 45 55
6 10 6 23 26 29 29 29 26 23 19 10 13 6 6 6 6 10 6 6 10 13 13 16 16 19 16 13 19 16 26 35 23 19 29 32 58 58 55 48 45 48 61
3 6 3 6 6 23 23 19 16 13 6 6 3 3 3 3 3 3 3 6 6 6 10 10 16 19 13 19 13 16 19 26 16 10 10 26 58 58 45 42 45 55 52
3 0 0 3 3 3 6 13 13 6 3 6 3 3 3 6 6 10 3 6 3 3 3 10 10 26 19 19 19 19 16 26 6 6 10 32 61 48 39 42 52 48 52
0 0 0 0 0 3 3 6 10 10 3 3 3 3 3 0 0 0 0 6 6 3 6 6 6 16 23 16 16 19 13 0 6 0 0 55 55 42 35 42 55 48 48
0 0 0 0 0 0 0 3 3 3 3 0 0 0 3 0 0 0 3 3 10 10 10 10 10 13 6 6 6 23 0 0 0 3 10 52 35 26 29 39 42 39 42
0 0 0 0 3 3 0 0 0 0 0 0 0 0 3 0 0 0 0 0 0 3 0 6 6 3 3 3 3 0 3 3 0 3 13 45 23 19 19 32 32 42 39
0 0 0 0 3 0 0 0 0 0 0 0 0 0 0 0 0 0 0 0 0 0 0 0 3 3 3 0 0 0 0 6 3 10 6 39 23 26 26 29 23 26 32
0 0 0 0 0 0 0 0 0 0 0 0 3 0 0 0 0 0 0 0 0 0 0 0 0 0 3 6 3 0 0 0 3 3 3 29 32 32 23 23 26 13 19
0 0 0 0 0 0 0 0 0 0 0 0 0 0 0 0 0 0 0 0 0 0 0 0 0 0 3 3 6 3 3 3 6 10 13 10 23 26 23 23 16 13 13
0 0 0 0 0 0 0 0 0 0 0 0 0 0 0 0 0 0 0 0 0 0 0 0 0 0 0 3 3 3 6 3 3 3 13 10 10 26 32 19 13 16 26
0 0 0 0 0 0 0 0 3 0 0 0 0 0 0 0 0 0 0 0 0 0 0 3 3 0 0 0 6 3 3 3 0 0 0 3 3 3 10 19 23 23 23
0 0 0 3 3 3 0 3 3 3 0 0 0 0 0 0 0 0 0 0 0 0 0 3 3 3 3 3 0 0 0 0 0 0 0 0 0 3 3 6 13 16 26
0 0 3 6 0 0 3 0 0 0 0 0 0 0 0 0 0 0 0 0 0 0 0 3 3 3 0 0 0 0 0 0 0 3 0 0 0 3 3 0 3 6 10
3 3 3 0 0 0 3 0 0 0 0 0 0 0 0 0 3 0 0 3 0 0 3 3 3 6 0 0 0 0 0 0 0 3 0 0 0 0 0 0 3 3 6
3 3 0 0 0 0 0 0 0 0 0 0 0 0 0 0 0 0 0 3 0 0 0 0 0 0 0 0 0 0 0 0 3 0 0 0 0 0 0 0 0 3 0
3 3 3 3 0 3 3 0 0 0 0 0 0 0 0 0 0 0 0 0 0 0 0 0 0 0 0 0 0 0 0 0 0 0 0 0 0 0 0 0 0 0 0
3 3 3 3 3 3 3 0 0 0 0 0 0 0 0 0 0 0 0 0 0 0 0 0 0 0 0 0 0 0 0 0 0 0 0 0 0 0 0 0 0 0 0
3 3 3 3 3 3 3 3 0 0 0 0 0 0 0 0 0 0 0 0 0 0 0 0 0 0 0 0 0 0 0 0 0 0 0 0 0 0 0 0 0 0 0
3 3 3 3 3 3 3 3 3 0 0 0 0 0 0 0 0 0 0 0 0 0 0 0 3 0 0 0 0 0 0 0 0 0 0 0 0 0 0 0 0 0 0

GEFSSE_con_cape1000_168.txt.gz
Probability
13 32 68 68 68 74 68 74 71 71 68 61 65 68 68 71 71 71 68 61 65 71 68 68 68 68 65 68 65 71 71 71 71 71 68 65 65 61 71 77 77 74 77
19 39 58 61 68 58 61 71 65 61 55 52 52 55 55 55 52 52 45 42 48 55 65 61 52 52 55 52 55 52 52 68 74 74 58 58 68 74 77 77 61 61 65
26 39 55 61 55 58 58 61 52 52 42 39 35 35 35 39 39 29 26 39 45 45 45 48 48 48 48 48 48 45 45 55 55 58 58 32 58 77 74 74 77 58 58
26 29 45 61 58 55 55 55 48 39 29 29 29 29 35 35 35 29 29 29 29 39 39 39 42 45 45 42 35 35 39 52 61 71 23 19 23 61 58 65 61 58 48
16 26 45 52 55 52 55 58 48 35 35 32 32 32 29 26 26 26 26 32 32 32 39 42 39 39 42 32 29 32 32 45 55 32 13 13 23 65 65 71 61 45 61
10 19 45 55 55 52 55 42 39 32 32 26 23 16 19 19 19 19 19 23 26 23 26 23 26 29 26 26 19 29 35 42 32 13 13 16 26 58 68 48 55 55 48
3 13 29 42 45 48 45 39 39 26 23 19 16 16 13 10 10 10 16 16 16 26 23 16 16 23 26 23 19 26 32 29 10 6 10 19 35 68 58 48 45 55 55
6 13 23 35 39 39 35 26 23 19 16 16 13 6 10 10 10 10 10 13 16 16 19 13 13 16 19 19 26 29 32 23 13 3 6 19 48 61 48 48 48 52 61
6 6 10 13 26 32 26 26 23 19 13 6 3 3 6 3 0 3 6 10 13 16 19 16 13 13 10 23 26 29 32 19 3 3 13 23 52 58 45 52 55 48 52
3 3 6 6 6 10 10 23 23 13 10 6 3 6 6 3 3 3 3 10 10 10 10 13 16 19 16 26 26 29 19 10 0 6 6 29 61 52 42 52 52 48 58
0 0 0 3 3 0 3 6 6 6 6 3 3 3 3 0 0 0 3 6 6 10 13 16 16 16 26 19 29 35 10 0 3 6 6 39 61 52 48 42 39 45 55
0 0 0 0 0 0 0 3 3 3 3 0 0 0 0 0 0 0 0 10 6 19 13 13 19 16 10 3 6 6 3 0 0 0 19 48 65 45 35 42 42 45 45
0 0 0 0 0 0 0 3 0 0 0 0 0 0 0 0 0 0 0 0 0 0 0 3 3 6 3 0 0 0 0 0 0 0 13 52 45 45 39 42 45 45 45
0 0 0 0 0 0 0 0 0 0 0 0 0 0 0 0 0 0 0 0 0 0 0 0 0 0 0 0 0 0 0 0 0 0 13 55 55 39 26 35 42 39 35
0 0 0 0 0 0 0 0 0 0 0 0 0 0 0 0 0 0 0 0 0 0 0 0 0 0 0 0 0 0 0 0 0 0 0 48 61 42 29 19 29 32 32
0 0 0 0 0 0 0 0 0 0 0 0 0 0 0 0 0 0 0 0 0 0 0 0 0 0 0 0 0 0 0 0 0 0 3 13 26 35 42 19 16 35 29
0 0 0 0 0 0 0 0 0 0 0 0 0 0 0 0 0 0 0 0 0 0 0 0 0 0 0 0 0 0 0 0 0 0 0 0 10 19 32 35 32 26 29
0 0 0 0 0 0 0 0 0 0 0 0 0 0 0 0 0 0 0 0 0 0 0 0 0 0 0 0 0 0 0 0 0 0 0 0 0 3 13 35 39 29 23
0 0 0 0 0 0 0 0 0 0 0 0 0 0 0 0 0 0 0 0 0 0 0 0 0 0 0 0 0 0 0 0 0 0 0 0 0 0 0 3 13 26 26
0 0 0 0 0 0 0 0 0 0 0 0 0 0 0 0 0 0 0 0 0 0 0 0 0 0 0 0 0 0 0 0 0 0 0 0 0 0 0 0 0 0 13
0 0 0 0 0 0 0 0 0 0 0 0 0 0 0 0 0 0 0 0 0 0 0 0 0 0 0 0 0 0 0 0 0 0 0 0 0 0 0 0 0 0 0
0 0 0 0 0 0 0 0 0 0 0 0 0 0 0 0 0 0 0 0 0 0 0 0 0 0 0 0 0 0 0 0 0 0 0 0 0 0 0 0 0 0 0
0 0 0 0 0 0 0 0 0 0 0 0 0 0 0 0 0 0 0 0 0 0 0 0 0 0 0 0 0 0 0 0 0 0 0 0 0 0 0 0 0 0 0
0 0 0 0 0 0 0 0 0 0 0 0 0 0 0 0 0 0 0 0 0 0 0 0 0 0 0 0 0 0 0 0 0 0 0 0 0 0 0 0 0 0 0
0 0 0 0 0 0 0 0 0 0 0 0 0 0 0 0 0 0 0 0 0 0 0 0 0 0 0 0 0 0 0 0 0 0 0 0 0 0 0 0 0 0 0
3 3 3 0 0 0 0 0 0 0 0 0 0 0 0 0 0 0 0 0 0 0 0 0 0 0 0 0 0 0 0 0 0 0 0 0 0 0 0 0 0 0 0

GEFSSE_con_cape1000_174.txt.gz
Probability
3 6 39 61 71 74 77 74 77 77 74 71 68 68 68 68 65 65 68 68 71 71 74 77 71 68 71 68 68 74 74 68 71 65 68 74 71 71 77 81 71 74 77
3 19 48 55 61 68 61 71 65 65 52 55 52 58 55 55 58 58 55 58 61 65 65 65 61 61 65 58 58 71 74 71 68 71 61 58 68 68 68 65 65 61 71
10 35 42 48 55 58 61 55 58 55 48 45 45 42 42 39 42 42 42 45 45 52 55 52 48 42 45 48 52 55 65 58 68 65 58 32 55 65 68 58 58 58 58
10 23 26 42 45 48 45 48 45 45 39 39 39 39 39 32 32 35 35 39 39 45 48 48 45 45 42 42 45 48 52 48 61 42 16 19 29 58 58 58 58 42 52
6 13 29 45 48 45 42 42 35 32 32 29 26 23 23 32 32 32 35 39 42 32 32 35 42 39 42 42 45 42 45 45 42 19 10 13 23 55 42 52 55 55 55
10 16 35 42 48 48 42 32 32 29 23 19 13 13 13 19 16 19 19 23 29 29 29 26 29 26 26 29 32 45 52 45 10 3 13 16 19 48 42 55 52 45 48
3 13 26 42 48 48 35 29 26 19 16 13 10 10 16 16 16 13 13 16 23 26 26 26 26 23 23 23 32 42 42 32 6 3 6 10 16 55 48 42 52 48 42
3 13 23 32 32 29 26 16 13 16 16 13 6 6 10 10 16 13 19 19 19 23 23 26 23 26 26 29 32 39 26 19 10 10 6 10 35 45 29 29 48 52 55
3 6 10 16 23 23 23 26 13 13 16 10 13 13 13 10 6 6 16 16 16 16 19 16 23 29 29 35 26 23 29 19 6 6 6 10 39 42 35 35 45 52 52
3 3 3 10 13 10 10 16 16 10 3 3 3 3 3 3 3 6 6 13 16 16 16 13 32 29 29 23 19 23 23 6 6 3 3 13 45 45 39 42 48 61 48
0 3 0 0 0 6 6 6 6 3 3 3 3 3 0 0 0 0 0 6 10 13 13 10 19 26 23 16 23 19 3 3 6 6 3 23 42 35 45 42 45 39 52
0 0 0 0 0 0 0 3 3 3 0 0 0 0 0 0 0 0 0 6 10 10 13 16 13 13 6 0 10 3 0 3 3 3 13 29 32 23 35 39 45 35 39
0 0 0 0 0 0 0 0 0 0 0 0 0 0 0 0 0 0 0 0 0 0 0 6 3 0 0 0 0 0 0 0 0 3 13 29 32 26 26 35 39 39 39
0 0 0 0 0 0 0 0 0 0 0 0 0 0 0 0 0 0 0 0 0 0 0 0 0 0 0 0 0 0 0 0 0 0 10 35 35 26 32 26 35 48 39
0 0 0 0 0 0 0 0 0 0 0 0 0 0 0 0 0 0 0 0 0 0 0 0 0 0 0 0 0 0 0 0 0 0 3 19 39 29 29 26 29 26 35
0 0 0 0 0 0 0 0 0 0 0 0 0 0 0 0 0 0 0 0 0 0 0 0 0 0 0 0 0 0 0 0 0 0 0 3 10 23 29 29 23 26 19
0 0 0 0 0 0 0 0 0 0 0 0 0 0 0 0 0 0 0 0 0 0 0 0 0 0 0 0 0 0 0 0 0 0 0 0 3 13 13 26 32 19 23
0 0 0 0 0 0 0 0 0 0 0 0 0 0 0 0 0 0 0 0 0 0 0 0 0 0 0 0 0 0 0 0 0 0 0 0 0 0 6 19 29 23 19
0 0 0 0 0 0 0 0 0 0 0 0 0 0 0 0 0 0 0 0 0 0 0 0 0 0 0 0 0 0 0 0 0 0 0 0 0 0 0 0 13 13 16
0 0 0 0 0 0 0 0 0 0 0 0 0 0 0 0 0 0 0 0 0 0 0 0 0 0 0 0 0 0 0 0 0 0 0 0 0 0 0 0 0 0 0
0 0 0 0 0 0 0 0 0 0 0 0 0 0 0 0 0 0 0 0 0 0 0 0 0 0 0 0 0 0 0 0 0 0 0 0 0 0 0 0 0 0 0
0 0 0 0 0 0 0 0 0 0 0 0 0 0 0 0 0 0 0 0 0 0 0 0 0 0 0 0 0 0 0 0 0 0 0 0 0 0 0 0 0 0 0
0 0 0 0 0 0 0 0 0 0 0 0 0 0 0 0 0 0 0 0 0 0 0 0 0 0 0 0 0 0 0 0 0 0 0 0 0 0 0 0 0 0 0
0 0 0 0 0 0 0 0 0 0 0 0 0 0 0 0 0 0 0 0 0 0 0 0 0 0 0 0 0 0 0 0 0 0 0 0 0 0 0 0 0 0 0
0 0 0 0 0 0 0 0 0 0 0 0 0 0 0 0 0 0 0 0 0 0 0 0 0 0 0 0 0 0 0 0 0 0 0 0 0 0 0 0 0 0 0
0 0 0 0 0 0 0 0 0 0 0 0 0 0 0 0 0 0 0 0 0 0 0 0 0 0 0 0 0 0 0 0 0 0 0 0 0 0 0 0 0 0 0

GEFSSE_con_cape1000_180.txt.gz
Probability
10 23 39 48 55 65 71 74 74 71 68 68 71 68 58 55 65 68 65 68 68 71 71 71 71 71 71 68 74 77 81 77 74 71 68 77 74 74 71 71 74 71 65
10 29 39 39 48 61 65 65 61 58 55 52 42 45 48 52 58 61 61 61 61 61 61 65 61 65 55 52 58 61 68 71 68 68 61 68 68 71 71 68 68 71 61
10 23 26 39 45 48 52 45 52 55 45 39 39 39 39 39 42 45 55 55 52 58 58 58 55 48 48 42 45 48 55 61 61 48 58 52 65 68 55 55 65 71 61
13 26 23 29 39 32 39 39 45 45 42 32 35 32 39 39 42 42 45 45 48 48 48 52 48 42 42 42 48 52 55 52 45 35 39 39 48 68 52 52 45 48 58
13 19 19 23 23 35 35 39 35 35 35 23 26 26 26 26 35 35 39 35 35 39 42 35 35 35 39 39 42 42 48 35 32 35 48 55 65 58 45 45 45 45 58
10 10 19 23 26 32 35 26 26 29 23 19 23 19 26 32 26 19 26 23 29 23 23 19 26 29 26 26 35 42 32 23 32 29 45 58 61 52 42 42 39 48 48
10 10 16 26 26 26 32 26 26 19 13 13 6 10 10 16 13 13 23 23 26 23 23 23 19 23 26 23 29 35 26 19 13 29 35 48 39 45 39 39 42 52 48
10 10 16 19 26 23 23 19 23 13 13 13 13 10 3 6 13 13 10 19 19 19 23 23 23 19 29 32 26 26 23 19 3 3 29 45 35 35 39 39 39 48 58
0 6 10 10 13 16 13 13 19 16 10 10 10 3 10 6 6 10 13 13 19 16 19 23 26 26 29 29 26 26 13 16 3 6 3 35 39 39 32 42 45 42 55
3 6 6 6 10 10 10 10 6 6 6 6 6 6 3 3 6 3 3 13 13 16 16 19 19 16 26 29 23 13 13 10 3 6 19 32 32 32 29 32 48 39 52
0 6 6 3 6 6 6 6 3 3 3 3 0 0 0 3 0 0 3 6 6 10 13 16 19 16 26 26 16 13 16 16 6 10 16 26 35 32 32 32 29 48 42
6 6 6 0 3 6 3 3 3 3 0 0 0 0 0 0 0 0 0 3 10 6 6 13 19 13 13 13 10 6 6 10 10 13 13 32 32 29 26 29 19 29 35
3 6 6 3 3 6 6 0 3 0 0 0 0 0 0 0 0 0 6 6 6 0 0 0 6 10 10 10 10 6 10 10 13 13 16 29 29 32 29 26 29 29 32
0 3 6 3 3 3 0 0 3 0 0 0 0 0 0 0 0 0 0 3 0 3 3 6 10 6 6 6 6 6 6 10 13 13 19 26 23 29 32 26 19 23 26
0 0 3 3 3 3 0 0 0 0 0 0 0 0 0 0 0 0 3 3 3 6 3 6 0 6 6 10 6 6 6 10 6 10 13 16 29 29 23 23 19 26 26
0 0 0 0 3 3 0 0 0 0 0 0 0 0 0 0 0 0 0 3 3 0 0 6 0 6 10 10 10 13 6 6 6 3 6 16 26 26 23 23 19 23 23
3 0 0 0 3 3 3 0 3 0 0 0 0 0 0 0 0 0 0 0 0 0 0 0 6 6 3 10 10 13 13 3 6 3 10 13 10 13 19 16 10 10 16
3 3 0 0 0 0 3 3 3 0 0 0 0 0 0 0 0 0 0 0 0 3 0 6 6 3 6 10 10 10 10 13 6 3 6 10 10 13 10 19 13 16 16
3 3 3 0 0 0 0 0 0 0 0 0 0 0 0 0 0 0 0 0 0 0 3 3 6 3 10 10 10 6 3 6 10 6 6 3 3 16 13 3 6 10 13
3 3 3 3 3 0 0 0 0 0 0 0 0 0 0 0 0 0 0 0 0 3 3 3 10 10 10 10 0 0 6 6 3 3 3 3 3 3 6 3 6 3 0
3 3 3 3 3 3 0 0 0 0 0 0 0 0 0 0 0 0 0 3 3 3 3 3 10 6 6 10 6 6 6 6 6 6 3 3 0 0 3 3 6 3 6
3 3 3 3 3 3 0 0 0 0 0 0 0 0 0 0 0 0 3 3 3 3 3 3 6 6 6 6 6 3 0 0 0 0 0 0 0 0 0 0 3 3 3
6 3 3 3 3 3 0 0 0 0 0 0 0 0 0 0 0 3 3 3 3 3 3 3 3 6 3 3 3 6 3 0 0 0 3 0 3 3 0 0 0 3 0
3 6 3 3 3 3 0 0 0 0 0 0 0 0 0 0 0 0 0 0 0 0 3 0 0 0 3 3 3 3 0 0 0 3 0 0 0 0 3 0 3 3 0
3 6 6 3 3 3 3 0 3 0 0 0 0 0 0 0 0 0 0 0 0 0 0 0 3 6 3 3 6 3 3 3 0 0 3 0 0 3 3 0 6 6 6
10 6 10 6 3 3 6 0 3 0 0 0 0 0 0 0 0 0 0 0 0 3 3 3 3 3 3 3 10 3 3 6 6 0 0 0 0 0 3 6 3 6 6

GEFSSE_con_cape1000_186.txt.gz
Probability
45 48 68 65 65 68 61 58 61 65 71 74 65 55 65 61 65 65 71 71 65 65 65 65 65 65 71 71 74 77 74 74 68 77 81 74 81 77 77 77 71 71 74
39 29 65 61 61 55 55 55 55 55 48 45 35 39 52 55 61 61 65 61 61 58 61 65 65 58 61 61 58 65 68 48 58 65 74 74 81 77 65 71 71 65 71
19 19 42 52 48 52 45 42 45 48 45 35 39 35 42 58 58 61 58 58 55 58 58 58 55 55 58 58 55 48 48 45 45 68 71 55 68 71 74 71 74 65 71
13 10 16 42 45 42 39 35 45 42 42 35 32 35 39 45 48 45 48 48 48 48 42 42 45 48 52 55 48 48 42 45 42 55 52 52 39 71 71 68 71 68 71
13 13 23 35 32 35 35 39 32 23 26 23 23 23 26 29 32 29 29 29 26 26 26 26 35 39 39 39 35 29 32 35 48 45 42 42 45 65 61 58 65 65 65
19 16 19 23 23 32 32 26 19 19 26 23 16 19 19 19 26 29 23 23 23 23 19 23 29 32 32 35 32 29 32 48 29 35 39 48 39 65 52 48 58 61 61
13 13 16 26 23 26 29 26 26 23 13 13 10 10 13 16 19 23 23 23 23 23 23 23 26 32 35 35 29 26 32 35 16 29 26 45 52 58 42 52 52 55 65
10 6 10 23 23 23 23 16 19 23 13 13 13 10 13 16 13 13 19 19 23 23 23 16 26 29 29 26 23 26 26 35 10 10 26 29 61 58 48 45 45 52 55
6 6 6 13 13 23 23 19 16 16 13 6 6 6 6 13 10 10 13 13 10 19 19 19 29 26 23 16 19 19 26 39 6 3 6 23 61 55 45 45 48 48 48
6 3 3 10 6 13 13 13 16 13 6 6 3 0 3 3 16 13 13 13 6 13 19 16 23 23 26 16 19 16 23 10 3 3 3 26 55 52 48 45 55 55 52
3 0 0 0 3 3 0 3 3 6 6 0 0 3 3 0 3 3 6 10 10 10 10 16 26 26 19 10 6 23 13 6 3 6 3 45 45 48 45 39 45 48 45
6 6 0 3 3 0 0 0 0 0 0 0 0 0 0 0 0 0 3 10 13 10 10 13 19 19 6 3 10 13 6 3 3 6 10 52 39 32 35 39 35 39 45
0 6 3 3 0 0 0 0 0 0 0 0 0 0 0 0 0 0 0 3 3 0 3 3 10 3 3 3 3 3 6 3 3 3 10 52 39 39 32 23 29 32 32
0 0 0 3 3 0 0 0 0 0 0 0 0 0 0 0 0 0 0 0 0 0 0 0 0 3 3 3 3 6 6 6 3 0 10 35 35 39 29 32 29 29 29
0 0 0 3 3 0 0 0 0 0 0 0 0 0 0 0 0 0 0 0 0 0 0 0 0 3 3 3 3 6 3 3 0 3 3 39 45 32 29 26 26 23 26
0 0 0 0 3 3 0 0 0 0 0 0 0 0 0 0 0 0 0 0 0 0 0 0 0 0 0 6 3 0 3 3 3 3 6 6 35 32 35 29 26 32 29
0 0 0 0 0 3 0 0 0 0 0 0 0 0 0 0 0 0 0 0 0 0 0 0 0 3 0 3 6 0 0 0 0 3 10 6 6 16 35 26 16 19 16
0 0 0 0 0 0 0 0 0 0 0 0 0 0 0 0 0 0 0 0 0 0 0 0 0 3 3 3 3 3 3 3 0 3 6 6 6 6 10 16 10 19 13
0 0 0 0 0 0 0 0 0 0 0 0 0 0 0 0 0 0 0 0 0 3 3 0 3 3 0 0 0 0 0 3 0 0 3 3 3 3 0 0 6 16 19
3 0 0 0 0 0 0 0 0 0 0 0 0 0 0 0 0 0 0 0 3 3 3 3 3 3 0 0 0 0 0 0 0 0 0 0 0 0 0 0 0 3 10
3 3 0 0 0 0 0 0 0 0 0 0 0 0 0 0 3 0 3 3 3 3 3 3 3 0 0 0 0 0 0 0 0 0 0 0 0 0 0 0 0 0 0
3 3 3 3 0 0 0 0 0 0 0 0 0 0 0 0 3 3 0 3 3 3 3 3 0 0 0 0 0 0 0 0 0 0 0 0 0 0 0 0 0 0 0
0 3 3 3 3 0 3 0 0 0 0 0 0 0 0 0 0 0 0 3 3 3 3 0 0 0 0 0 0 0 0 0 0 0 0 0 0 0 0 0 0 0 0
3 0 0 3 3 0 3 0 0 0 0 0 0 0 0 0 0 0 0 0 0 0 0 0 0 0 0 0 0 0 0 0 0 0 0 0 0 0 0 0 0 0 0
3 3 3 0 3 3 0 0 3 0 0 0 0 0 0 0 0 0 0 0 0 0 0 0 0 0 0 0 0 0 0 0 0 0 0 0 0 0 0 0 0 0 0
10 6 3 3 0 3 3 0 0 0 0 0 0 0 0 0 0 0 0 0 0 0 0 0 0 0 0 0 0 0 0 0 0 0 0 0 0 0 0 0 0 0 0

GEFSSE_con_cape1000_192.txt.gz
Probability
13 45 71 71 74 77 74 71 71 77 74 68 65 65 61 65 61 58 58 68 65 65 65 71 68 68 68 68 68 74 74 77 77 77 74 81 81 74 77 77 71 74 71
19 42 71 65 68 68 65 65 65 55 58 52 58 58 58 65 61 58 58 58 58 65 65 61 61 65 65 61 55 61 68 65 68 74 81 71 71 81 74 74 68 68 74
26 39 48 65 65 61 58 55 52 48 45 42 55 58 55 55 55 55 58 58 55 55 55 55 55 55 58 55 52 48 58 52 52 58 61 45 65 74 71 77 77 71 71
13 16 32 55 58 55 52 48 48 45 42 45 45 48 52 52 58 48 45 45 48 45 48 48 45 48 52 45 42 52 55 48 48 48 16 23 39 65 74 74 68 71 68
6 23 35 45 48 52 48 42 39 39 39 39 39 42 45 42 42 42 39 39 39 39 35 42 45 42 45 39 35 35 35 39 55 23 10 13 35 52 61 61 58 58 68
10 19 35 42 45 42 42 26 29 32 32 29 29 29 35 35 39 39 32 26 26 23 23 35 35 39 32 35 29 23 29 29 16 0 0 16 29 52 58 61 58 55 61
6 16 32 45 42 32 29 29 26 26 19 19 23 26 26 35 32 26 26 26 23 26 26 29 35 29 29 26 23 26 29 23 0 0 3 10 35 52 52 55 58 58 52
0 10 23 39 35 29 26 23 16 19 16 16 19 19 16 16 16 16 19 23 23 19 19 26 29 26 29 26 26 23 26 16 3 3 6 16 45 58 55 48 52 48 48
0 6 10 16 19 26 19 16 16 19 13 10 10 13 10 13 16 16 16 23 19 16 19 16 19 23 23 23 23 23 19 19 0 0 10 26 55 45 42 48 58 52 55
0 0 3 3 10 10 19 16 16 16 10 10 6 10 13 13 10 13 16 16 16 16 16 19 19 19 19 23 19 23 16 3 0 0 0 32 45 42 42 45 52 42 48
0 0 0 0 0 0 0 13 16 16 6 6 6 6 6 0 0 3 10 10 13 10 10 13 19 19 13 13 16 13 6 0 0 0 0 32 48 39 42 39 32 39 35
0 0 0 0 0 0 0 0 0 0 0 0 0 0 0 0 0 0 3 13 10 13 10 13 19 10 6 3 3 3 0 0 0 0 13 45 35 39 39 39 29 35 32
0 0 0 0 0 0 0 0 0 0 0 0 0 0 0 0 0 0 0 3 3 3 3 3 3 0 0 0 0 0 0 0 0 0 13 42 32 29 32 29 23 29 32
0 0 0 0 0 0 0 0 0 0 0 0 0 0 0 0 0 0 0 0 0 0 0 3 0 0 0 0 0 0 0 0 0 3 6 32 29 26 19 26 26 32 26
0 0 0 0 0 0 0 0 0 0 0 0 0 0 0 0 0 0 0 0 0 0 0 0 0 0 0 0 0 0 0 0 0 0 6 26 29 26 23 19 19 19 26
0 0 0 0 0 0 0 0 0 0 0 0 0 0 0 0 0 0 0 0 0 0 0 0 0 0 0 0 0 0 0 0 0 0 0 6 35 26 23 19 16 19 23
0 0 0 0 0 0 0 0 0 0 0 0 0 0 0 0 0 0 0 0 0 0 0 0 0 0 0 0 0 0 0 0 0 0 0 0 3 16 23 23 16 13 16
0 0 0 0 0 0 0 0 0 0 0 0 0 0 0 0 0 0 0 0 0 0 0 0 0 0 0 0 0 0 0 0 0 0 0 0 0 0 6 19 19 13 10
0 0 0 0 0 0 0 0 0 0 0 0 0 0 0 0 0 0 0 0 0 0 0 0 0 0 0 0 0 0 0 0 0 0 0 0 0 0 0 0 6 10 10
0 0 0 0 0 0 0 0 0 0 0 0 0 0 0 0 0 0 0 0 0 0 0 0 0 0 0 0 0 0 0 0 0 0 0 0 0 0 0 0 0 0 3
0 0 0 0 0 0 0 0 0 0 0 0 0 0 0 0 0 0 0 0 0 0 0 0 0 0 0 0 0 0 0 0 0 0 0 0 0 0 0 0 0 0 0
0 0 0 0 0 0 0 0 0 0 0 0 0 0 0 0 0 0 0 0 0 0 0 0 0 0 0 0 0 0 0 0 0 0 0 0 0 0 0 0 0 0 0
0 0 0 0 0 0 0 0 0 0 0 0 0 0 0 0 0 0 0 0 0 0 0 0 0 0 0 0 0 0 0 0 0 0 0 0 0 0 0 0 0 0 0
0 0 0 0 0 0 0 0 0 0 0 0 0 0 0 0 0 0 0 0 0 0 0 0 0 0 0 0 0 0 0 0 0 0 0 0 0 0 0 0 0 0 0
0 0 0 0 0 0 0 0 0 0 0 0 0 0 0 0 0 0 0 0 0 0 0 0 0 0 0 0 0 0 0 0 0 0 0 0 0 0 0 0 0 0 0
0 0 0 0 0 0 0 0 0 0 0 0 0 0 0 0 0 0 0 0 0 0 0 0 0 0 0 0 0 0 0 0 0 0 0 0 0 0 0 0 0 0 0

GEFSSE_con_cape1000_198.txt.gz
Probability
3 6 48 58 61 65 65 65 68 71 71 68 58 61 65 68 68 71 71 68 68 68 68 65 65 65 68 77 81 77 74 77 81 84 81 87 84 81 77 68 71 77 81
3 23 45 55 48 65 65 65 65 55 55 55 52 48 61 61 61 61 65 61 61 61 61 61 61 61 68 68 68 65 74 77 90 84 81 68 74 74 68 71 71 68 71
13 29 39 48 58 61 58 52 48 42 45 48 48 48 61 61 55 55 55 52 52 55 58 58 55 55 52 45 52 55 61 71 71 61 52 39 55 71 71 68 68 65 65
16 19 29 39 52 55 45 39 42 39 35 39 48 45 48 45 45 45 45 45 45 55 55 48 42 42 42 39 45 42 58 58 52 39 16 23 39 55 65 65 71 68 71
10 16 32 45 45 35 29 39 39 39 35 39 39 35 45 48 45 48 48 45 45 45 48 42 39 39 39 39 35 39 42 52 42 10 6 10 29 52 55 65 68 65 61
10 16 23 39 42 32 29 35 32 29 29 29 32 39 45 42 39 39 32 32 35 32 32 35 35 35 29 29 26 35 35 39 6 0 0 13 16 52 58 55 55 61 61
6 10 19 26 35 32 23 19 26 29 23 26 26 35 35 35 35 32 32 23 23 29 32 26 26 23 23 29 32 29 32 26 0 0 6 10 23 52 55 52 52 52 58
6 16 16 26 26 29 19 16 16 16 10 13 13 23 29 32 26 26 26 26 26 26 19 23 23 19 26 29 29 29 26 16 10 6 10 10 39 42 42 52 42 48 58
3 10 3 13 19 23 19 10 10 10 10 10 13 13 16 16 23 23 23 26 23 19 16 16 23 19 26 26 29 23 19 10 0 3 10 10 32 42 42 48 45 42 45
0 0 3 3 6 10 10 10 10 10 6 13 13 10 16 10 10 13 19 16 13 13 16 16 23 16 23 19 19 16 10 3 0 0 3 13 39 35 42 39 32 35 39
0 0 0 0 0 0 3 10 6 6 6 6 3 6 3 3 3 6 16 13 13 10 13 13 19 16 13 19 19 6 3 0 0 0 3 26 35 35 39 39 35 29 29
0 0 0 0 0 0 0 0 0 0 0 0 0 0 0 0 0 3 6 10 6 6 6 10 13 3 3 0 0 0 0 0 0 3 3 32 29 19 32 35 35 32 29
0 0 0 0 0 0 0 0 0 0 0 0 0 0 0 0 0 0 3 3 3 3 3 0 0 0 0 0 0 0 0 0 0 0 6 23 19 26 23 23 29 29 23
0 0 0 0 0 0 0 0 0 0 0 0 0 0 0 0 0 0 0 0 0 0 0 0 0 0 0 0 0 0 0 0 0 0 0 23 19 23 19 13 19 26 23
0 0 0 0 0 0 0 0 0 0 0 0 0 0 0 0 0 0 0 0 0 0 0 0 0 0 0 0 0 0 0 0 0 0 0 19 19 23 13 23 23 19 23
0 0 0 0 0 0 0 0 0 0 0 0 0 0 0 0 0 0 0 0 0 0 0 0 0 0 0 0 0 0 0 0 0 0 0 0 16 19 19 19 23 16 13
0 0 0 0 0 0 0 0 0 0 0 0 0 0 0 0 0 0 0 0 0 0 0 0 0 0 0 0 0 0 0 0 0 0 0 0 0 10 23 16 19 16 13
0 0 0 0 0 0 0 0 0 0 0 0 0 0 0 0 0 0 0 0 0 0 0 0 0 0 0 0 0 0 0 0 0 0 0 0 0 0 0 10 10 13 13
0 0 0 0 0 0 0 0 0 0 0 0 0 0 0 0 0 0 0 0 0 0 0 0 0 0 0 0 0 0 0 0 0 0 0 0 0 0 0 0 0 3 6
0 0 0 0 0 0 0 0 0 0 0 0 0 0 0 0 0 0 0 0 0 0 0 0 0 0 0 0 0 0 0 0 0 0 0 0 0 0 0 0 0 0 0
0 0 0 0 0 0 0 0 0 0 0 0 0 0 0 0 0 0 0 0 0 0 0 0 0 0 0 0 0 0 0 0 0 0 0 0 0 0 0 0 0 0 0
0 0 0 0 0 0 0 0 0 0 0 0 0 0 0 0 0 0 0 0 0 0 0 0 0 0 0 0 0 0 0 0 0 0 0 0 0 0 0 0 0 0 0
0 0 0 0 0 0 0 0 0 0 0 0 0 0 0 0 0 0 0 0 0 0 0 0 0 0 0 0 0 0 0 0 0 0 0 0 0 0 0 0 0 0 0
0 0 0 0 0 0 0 0 0 0 0 0 0 0 0 0 0 0 0 0 0 0 0 0 0 0 0 0 0 0 0 0 0 0 0 0 0 0 0 0 0 0 0
0 0 0 0 0 0 0 0 0 0 0 0 0 0 0 0 0 0 0 0 0 0 0 0 0 0 0 0 0 0 0 0 0 0 0 0 0 0 0 0 0 0 0
0 0 0 0 0 0 0 0 0 0 0 0 0 0 0 0 0 0 0 0 0 0 0 0 0 0 0 0 0 0 0 0 0 0 0 0 0 0 0 0 0 0 0

GEFSSE_con_cape1000_204.txt.gz
Probability
13 35 42 48 45 48 58 61 71 74 65 61 68 68 65 68 68 68 65 68 68 68 65 65 68 65 68 68 74 74 74 74 77 84 77 81 81 74 71 65 65 48 71
10 29 35 45 45 55 55 61 65 61 55 55 58 61 55 52 61 65 65 65 61 65 65 61 58 65 58 68 74 71 71 58 65 61 68 77 77 77 68 68 61 65 61
13 29 32 45 42 42 45 48 45 48 48 52 45 52 48 48 55 52 58 55 58 55 55 55 52 55 48 55 55 71 68 65 48 48 48 48 61 61 71 65 65 71 61
10 19 19 39 35 29 35 32 39 39 35 42 39 42 45 48 48 55 58 55 55 48 45 39 42 35 42 45 42 52 52 48 39 32 35 39 48 48 52 68 71 71 61
10 19 32 39 32 26 23 26 29 29 32 35 39 35 35 39 42 48 55 52 48 35 32 32 35 39 35 35 39 42 45 42 26 26 32 65 81 68 55 58 65 71 52
10 13 29 29 19 16 23 23 19 23 29 29 42 39 35 32 35 39 32 39 35 39 35 32 29 32 29 29 32 39 39 26 19 23 29 42 52 65 58 55 58 65 61
13 13 19 29 16 16 16 13 19 19 23 29 29 32 32 29 29 26 29 29 32 23 23 23 23 23 32 29 29 29 26 23 13 19 26 29 48 58 52 58 55 55 52
13 6 16 23 16 19 13 13 13 13 16 23 23 26 23 19 19 23 23 26 19 23 16 23 19 23 26 32 29 29 19 16 13 10 23 32 39 45 45 52 48 52 52
6 6 13 23 16 16 13 10 13 13 10 13 16 19 19 23 23 23 23 16 16 16 13 16 23 19 16 26 23 16 10 19 10 16 13 29 39 39 42 42 48 45 52
3 3 6 6 6 10 13 10 10 10 6 6 6 13 16 19 19 16 16 13 13 13 6 13 13 13 23 19 13 10 3 6 6 10 16 23 39 35 39 42 35 39 48
0 0 3 3 3 6 10 6 6 10 6 3 3 3 6 3 3 3 3 13 10 10 10 19 13 13 16 10 10 3 3 6 3 10 13 19 26 32 32 29 23 19 32
0 0 3 3 0 0 6 6 3 0 0 0 0 0 0 0 3 3 3 10 10 6 10 10 10 10 6 10 3 3 6 6 6 6 10 16 16 19 23 26 23 16 26
3 0 3 3 0 0 0 0 0 0 0 0 0 0 0 0 0 0 3 3 3 3 3 10 10 6 6 10 6 6 10 3 3 3 6 16 13 16 16 16 26 23 23
3 3 0 0 0 0 0 0 0 0 0 0 0 0 0 0 0 0 0 3 3 3 10 6 6 3 3 3 3 3 3 3 0 10 16 19 23 23 19 16 16 26 16
3 3 0 0 0 0 0 0 0 0 0 0 0 0 0 0 0 0 0 0 0 3 3 3 3 3 6 6 3 3 0 0 0 3 16 13 19 32 19 16 13 19 19
3 3 0 0 0 0 0 0 0 0 0 0 0 0 0 0 0 0 0 0 0 0 3 3 0 6 6 6 3 0 0 0 0 0 10 10 19 26 23 13 6 16 19
3 0 0 0 0 0 0 0 0 0 0 0 0 0 0 0 0 0 0 0 0 0 0 3 3 6 6 0 0 0 3 3 3 3 3 6 10 3 10 13 6 13 23
0 0 0 0 0 0 0 0 0 0 0 0 0 0 0 0 0 0 0 0 0 0 0 6 3 3 6 3 0 0 3 3 3 3 6 3 6 3 10 6 6 6 10
0 0 0 0 0 0 0 0 0 0 0 0 0 0 0 0 0 0 0 0 0 0 3 3 3 6 3 0 0 0 3 3 0 0 0 0 0 3 6 3 3 3 3
0 0 0 0 0 0 0 0 0 0 0 0 0 0 0 0 0 0 0 0 0 0 0 3 6 6 0 0 0 0 3 0 0 0 0 0 0 0 0 0 0 3 0
3 0 0 0 0 0 0 0 0 0 0 0 0 0 0 0 0 0 0 0 0 0 0 3 3 0 0 0 0 3 3 0 0 0 0 0 0 0 0 3 0 0 3
3 3 0 0 0 0 0 0 0 0 0 0 0 0 0 0 0 0 0 0 0 0 3 3 3 0 0 0 0 3 3 0 0 0 0 0 3 0 0 0 0 3 3
3 3 0 0 0 0 0 0 0 0 0 0 0 0 0 0 0 0 0 3 0 0 3 3 3 3 3 0 3 0 0 3 0 0 0 0 3 6 3 6 3 3 0
3 3 0 3 0 0 0 0 0 0 0 0 0 0 0 0 0 0 0 0 3 3 3 3 3 3 0 3 3 0 0 3 0 0 3 0 0 3 6 3 3 0 3
3 3 3 3 0 0 0 0 0 0 0 0 0 0 0 0 0 0 0 0 0 3 3 3 3 0 3 3 0 0 3 3 0 0 0 0 0 3 3 3 3 3 3
3 3 3 3 3 0 0 0 0 0 0 0 0 0 0 0 0 0 0 0 0 0 0 6 3 3 3 3 0 0 3 3 0 0 0 3 3 3 0 0 0 3 3